Weather History for Limon, CO

Change the Weather History Date:

Thursday, March 13, 2014

  Actual Average Record
Temperature  
Mean Temperature 37 °F -  
Max Temperature 61 °F - 75 °F (2007)
Min Temperature 14 °F - 9 °F (2006)
Degree Days  
Heating Degree Days 28    
Month to date heating degree days  
Cooling Degree Days 0    
Month to date cooling degree days  
Moisture  
Dew Point 11 °F    
Average Humidity 45    
Maximum Humidity 84    
Minimum Humidity 9    
Precipitation  
Precipitation 0.00 in - 0.08 in (2005)
Month to date precipitation  
Year to date precipitation  
Sea Level Pressure  
Sea Level Pressure 29.97 in    
Wind  
Wind Speed 7 mph (NNW)    
Max Wind Speed 17 mph    
Max Gust Speed 29 mph    
Visibility 10 miles    
Events      
T = Trace of Precipitation, MM = Missing Value Source: NWS Daily Summary

Daily Weather History Graph

Daily Weather History Graph

Search for Another Location

Airport:

Trip Planner

Search our weather history database for the weather conditions in past years. The results will help you decide how hot, cold, wet, or windy it might be!

Date:

Astronomy

Mar. 13, 2014 Rise Set
Actual Time 7:09 AM MDT 6:59 PM MDT
Civil Twilight 6:42 AM MDT 7:26 PM MDT
Nautical Twilight 6:11 AM MDT 7:57 PM MDT
Astronomical Twilight 5:40 AM MDT 8:28 PM MDT
Moon 4:28 PM MDT (3/13) 5:16 AM MDT (3/13)
Length of Visible Light 12h 44m
Length of Day
11h 50m
Waxing Gibbous, 92% of the Moon is Illuminated
Mar 13
Waxing Gibbous
Mar 16
Full
Mar 23
Last Quarter
Mar 30
New
Apr 7
First Quarter

Hourly Weather History & Observations

Time (MDT) Temp. Windchill Dew Point Humidity Pressure Visibility Wind Dir Wind Speed Gust Speed Precip Events Conditions
12:55 AM 17.1 °F 8.7 °F 12.9 °F 84% 30.22 in 10.0 mi North 5.8 mph - N/A   Clear
1:55 AM 17.1 °F 8.7 °F 12.9 °F 84% 30.19 in 10.0 mi North 5.8 mph - N/A   Clear
2:55 AM 16.0 °F 10.4 °F 12.0 °F 84% 30.16 in 10.0 mi NNW 3.5 mph - N/A   Clear
3:55 AM 16.0 °F 4.4 °F 12.0 °F 84% 30.12 in 10.0 mi North 9.2 mph - N/A   Clear
4:55 AM 17.1 °F 8.7 °F 12.0 °F 81% 30.10 in 10.0 mi North 5.8 mph - N/A   Clear
5:55 AM 14.0 °F 3.9 °F 10.0 °F 84% 30.09 in 10.0 mi North 6.9 mph - N/A   Clear
6:55 AM 16.0 °F - 12.0 °F 84% 30.12 in 10.0 mi Calm Calm - N/A   Clear
7:55 AM 19.9 °F 13.4 °F 15.1 °F 81% 30.13 in 10.0 mi NNE 4.6 mph - N/A   Clear
8:55 AM 32.0 °F 27.5 °F 21.9 °F 66% 30.08 in 10.0 mi West 4.6 mph - N/A   Clear
9:55 AM 43.0 °F - 19.0 °F 38% 30.03 in 10.0 mi Calm Calm - N/A   Clear
10:55 AM 52.0 °F - 8.1 °F 17% 29.98 in 10.0 mi West 9.2 mph - N/A   Clear
11:55 AM 55.0 °F - 6.1 °F 14% 29.95 in 10.0 mi NW 8.1 mph - N/A   Clear
12:55 PM 57.9 °F - 3.9 °F 11% 29.89 in 10.0 mi NNW 13.8 mph 21.9 mph N/A   Clear
1:55 PM 60.1 °F - 6.1 °F 12% 29.85 in 10.0 mi NW 17.3 mph 25.3 mph N/A   Clear
2:55 PM 60.1 °F - 1.0 °F 9% 29.83 in 10.0 mi WSW 9.2 mph - N/A   Clear
3:55 PM 60.1 °F - 1.0 °F 9% 29.82 in 10.0 mi West 8.1 mph 20.7 mph N/A   Clear
4:55 PM 60.1 °F - 3.9 °F 11% 29.79 in 10.0 mi NW 6.9 mph - N/A   Clear
5:55 PM 57.9 °F - 8.1 °F 14% 29.81 in 10.0 mi NW 10.4 mph - N/A   Clear
6:55 PM 50.0 °F - 12.0 °F 22% 29.85 in 10.0 mi North 12.7 mph - N/A   Clear
7:55 PM 41.0 °F 35.2 °F 16.0 °F 36% 29.87 in 10.0 mi NNW 9.2 mph - N/A   Partly Cloudy
8:55 PM 41.0 °F 35.2 °F 17.1 °F 38% 29.84 in 10.0 mi North 9.2 mph - N/A   Clear
9:55 PM 46.0 °F 39.9 °F 16.0 °F 30% 29.81 in 10.0 mi NNW 13.8 mph - N/A   Mostly Cloudy
10:55 PM 36.0 °F 27.1 °F 19.0 °F 50% 29.82 in 10.0 mi NNW 13.8 mph - N/A   Clear
11:55 PM 39.9 °F 32.9 °F 17.1 °F 40% 29.81 in 10.0 mi NNW 11.5 mph 28.8 mph N/A   Clear